DW9167 Weather Reports


Display with metric or nautical units.
time (UTC)temp
F
wind
direction
speed
MPH
gust
MPH
rain 1hr
in
rain 24hr
in
rain mn
in
humidity
%
barometer
mb
20260508180604 77 157 0.0 0.0 0.00 0.00 0.00 76 1004.2
20260508175605 77 135 1.0 3.0 0.00 0.00 0.00 75 1004.2
20260508174604 77 157 0.0 0.0 0.00 0.00 0.00 73 1004.2
20260508173619 78 112 0.0 0.0 0.00 0.00 0.00 71 1004.5
20260508172603 78 360 0.0 0.0 0.00 0.00 0.00 71 1004.2
20260508171605 77 22 0.0 0.0 0.00 0.00 0.00 72 1004.2
20260508170604 75 360 0.0 0.0 0.00 0.00 0.00 73 1004.9
20260508165702 74 8 1.0 4.0 0.00 0.00 0.00 74 1004.9
20260508165603 74 322 0.0 4.0 0.00 0.00 0.00 75 1004.9
20260508164603 74 292 3.0 5.0 0.00 0.00 0.00 73 1004.9
20260508163604 73 278 0.0 2.0 0.00 0.00 0.00 76 1005.2
20260508162702 72 337 0.0 0.0 0.00 0.00 0.00 80 1005.6
20260508161702 71 360 0.0 1.0 0.00 0.00 0.00 81 1005.9
20260508160706 70 180 0.0 0.0 0.00 0.00 0.00 82 1006.2
20260508155704 70 180 0.0 0.0 0.00 0.00 0.00 82 1006.2
20260508154803 69 180 0.0 0.0 0.00 0.00 0.00 82 1006.2
20260508153803 68 180 0.0 0.0 0.00 0.00 0.00 82 1006.2
20260508152803 68 180 2.0 3.0 0.00 0.00 0.00 83 1006.2
20260508150802 67 180 1.0 3.0 0.00 0.00 0.00 85 1006.9
20260508143002 65 360 0.0 0.0 0.00 0.00 0.00 89 1006.9
20260508142005 64 360 0.0 0.0 0.00 0.00 0.00 90 1006.9
20260508141103 64 360 0.0 0.0 0.00 0.00 0.00 90 1007.3
20260508140105 63 339 0.0 2.0 0.00 0.00 0.00 90 1007.6
20260508135202 62 315 0.0 0.0 0.00 0.00 0.00 88 1007.6
20260508134204 63 315 0.0 0.0 0.00 0.00 0.00 89 1008.0
20260508133202 62 315 0.0 0.0 0.00 0.00 0.00 88 1007.6
20260508130204 62 45 1.0 2.0 0.00 0.00 0.00 90 1007.6
20260508124303 61 22 0.0 0.0 0.00 0.00 0.00 90 1007.9
20260508123306 61 45 0.0 1.0 0.00 0.00 0.00 90 1008.0
20260508122306 61 45 1.0 3.0 0.00 0.00 0.00 90 1008.3
20260508121303 60 22 1.0 3.0 0.00 0.00 0.00 89 1008.3
20260508120323 60 45 2.0 3.0 0.00 0.00 0.00 89 1008.7
20260508114324 61 32 2.0 4.0 0.00 0.00 0.00 90 1008.6
20260508113323 61 337 0.0 2.0 0.00 0.00 0.00 90 1008.7
20260508111321 61 22 0.0 0.0 0.00 0.00 0.00 90 1008.5
20260508110323 61 67 0.0 0.0 0.00 0.00 0.00 90 1008.3
20260508105323 61 46 0.0 0.0 0.00 0.00 0.00 90 1008.3
20260508104322 61 22 0.0 2.0 0.00 0.00 0.00 89 1008.3
20260508103321 61 21 1.0 4.0 0.00 0.00 0.00 89 1008.3
20260508102322 61 35 1.0 4.0 0.00 0.00 0.00 88 1008.3
20260508101322 60 27 3.0 5.0 0.00 0.00 0.00 87 1008.3
20260508100324 60 33 1.0 3.0 0.00 0.00 0.00 86 1008.3
20260508095323 61 35 2.0 4.0 0.00 0.00 0.00 87 1008.5
20260508093324 61 22 0.0 1.0 0.00 0.00 0.00 86 1008.7
20260508092321 61 360 1.0 2.0 0.00 0.00 0.00 86 1008.3
20260508091324 61 360 1.0 3.0 0.00 0.00 0.00 85 1008.2
20260508090321 60 45 2.0 4.0 0.00 0.00 0.00 84 1008.0
20260508085323 61 45 0.0 0.0 0.00 0.00 0.00 85 1008.3
20260508083323 61 45 0.0 0.0 0.00 0.00 0.00 85 1008.3
20260508082321 61 45 0.0 2.0 0.00 0.00 0.00 84 1008.3
20260508081325 61 67 0.0 3.0 0.00 0.00 0.00 84 1008.3
20260508080422 61 67 0.0 0.0 0.00 0.00 0.00 84 1008.3
20260508074421 61 22 0.0 2.0 0.00 0.00 0.00 84 1008.3
20260508073423 61 45 0.0 1.0 0.00 0.00 0.00 84 1008.3
20260508072423 61 27 2.0 5.0 0.00 0.00 0.00 84 1008.0
20260508070422 61 45 1.0 2.0 0.00 0.00 0.00 84 1008.3
20260508065426 61 1 0.0 3.0 0.00 0.00 0.00 84 1008.7
20260508064523 61 360 0.0 1.0 0.00 0.00 0.00 85 1009.0
20260508063522 61 360 0.0 1.0 0.00 0.00 0.00 86 1009.7
20260508062525 60 22 0.0 0.0 0.00 0.00 0.00 87 1009.4
20260508061623 60 22 0.0 0.0 0.00 0.00 0.00 87 1009.7
20260508055624 61 22 1.0 2.0 0.00 0.00 0.00 85 1009.0
20260508054621 60 360 0.0 0.0 0.00 0.00 0.00 84 1009.7
20260508050623 61 22 1.0 2.0 0.00 0.00 0.00 83 1009.0
20260508044631 61 334 2.0 4.0 0.00 0.00 0.00 83 1009.0
20260508043632 61 67 0.0 0.0 0.00 0.00 0.00 83 1008.7
20260508042633 61 66 2.0 4.0 0.00 0.00 0.00 84 1009.0
20260508040731 61 22 0.0 0.0 0.00 0.00 0.00 84 1009.7
20260508035733 61 22 0.0 0.0 0.00 0.00 0.00 84 1009.7
20260508033834 61 337 0.0 0.0 0.00 0.00 0.00 84 1010.4
20260508032931 61 8 1.0 2.0 0.00 0.00 0.00 84 1010.4
20260508025933 61 45 0.0 0.0 0.00 0.00 0.00 83 1009.4
20260508024934 61 45 0.0 0.0 0.00 0.00 0.00 82 1009.7
20260508024031 61 58 0.0 4.0 0.00 0.00 0.00 82 1008.3
20260508023031 61 67 0.0 0.0 0.00 0.00 0.00 82 1008.0
20260508021032 62 67 1.0 2.0 0.00 0.00 0.00 81 1008.0
20260508020033 62 45 1.0 4.0 0.00 0.00 0.00 80 1007.6
20260508015129 62 67 0.0 0.0 0.00 0.00 0.00 79 1007.6
20260508014133 62 67 0.0 0.0 0.00 0.00 0.00 78 1007.6
20260508013132 62 45 0.0 0.0 0.00 0.00 0.00 77 1008.3
20260508012132 63 60 2.0 3.0 0.00 0.00 0.00 76 1008.3
20260508011230 63 63 2.0 6.0 0.00 0.00 0.00 75 1007.6
20260508005230 64 112 0.0 0.0 0.00 0.00 0.00 72 1008.7
20260508003232 64 67 0.0 0.0 0.00 0.00 0.00 69 1009.0
20260508002233 65 67 0.0 1.0 0.00 0.00 0.00 67 1008.3
20260508001331 66 67 0.0 2.0 0.00 0.00 0.00 67 1008.6
20260508000334 66 67 0.0 0.0 0.00 0.00 0.00 66 1009.0
20260507235331 67 45 3.0 5.0 0.00 0.00 0.00 64 1008.9
20260507233430 68 349 2.0 6.0 0.00 0.00 0.00 66 1009.0
20260507232431 67 43 3.0 4.0 0.00 0.00 0.00 66 1009.0
20260507231431 66 22 2.0 4.0 0.00 0.00 0.00 66 1008.7
20260507230430 67 51 3.0 5.0 0.00 0.00 0.00 65 1008.7
20260507224431 67 27 1.0 4.0 0.00 0.00 0.00 68 1009.0
20260507223430 66 40 2.0 4.0 0.00 0.00 0.00 67 1009.4
20260507222430 66 56 4.0 5.0 0.00 0.00 0.00 68 1009.7
20260507214431 66 35 2.0 4.0 0.00 0.00 0.00 67 1009.4
20260507213530 67 45 1.0 3.0 0.00 0.00 0.00 67 1009.4
20260507212532 67 27 2.0 3.0 0.00 0.00 0.00 66 1009.0
20260507211630 67 45 2.0 5.0 0.00 0.00 0.00 69 1009.0
20260507205730 65 67 1.0 3.0 0.00 0.00 0.00 71 1009.4
20260507203832 65 42 3.0 5.0 0.00 0.00 0.00 70 1010.4
20260507202832 65 25 4.0 5.0 0.00 0.00 0.00 70 1010.7
20260507200931 66 28 4.0 8.0 0.00 0.00 0.00 69 1010.1
20260507195931 66 53 4.0 6.0 0.00 0.00 0.00 71 1010.7
20260507194932 64 40 2.0 5.0 0.00 0.00 0.00 73 1010.7
20260507192931 64 66 1.0 5.0 0.00 0.00 0.00 77 1010.7
20260507192030 63 53 1.0 3.0 0.00 0.00 0.00 78 1011.4
20260507191032 63 22 0.0 1.0 0.00 0.00 0.00 79 1011.1
20260507190034 63 5 1.0 5.0 0.00 0.00 0.00 77 1011.1
20260507185031 63 40 4.0 8.0 0.00 0.00 0.00 75 1011.1
20260507184032 63 50 4.0 7.0 0.00 0.00 0.00 77 1011.4
20260507183130 63 82 1.0 4.0 0.00 0.00 0.00 77 1011.4
20260507182130 63 40 4.0 7.0 0.00 0.00 0.00 77 1011.4